Погода в Воркуте

Погода в Воркуте : погода сейчас, прогноз погоды и архив. Всё, что Вы хотите узнать о погоде в Воркуте!

Хотите узнать прогноз погоды в Воркуте? Тогда Вам сюда: Погода в Воркуте

Поиск расширенной информации на нашем сайте:

Другие новости

Новости СМИ2

Главная страница сайта

Новости сайта

03.07.2017

Напоминаем, что на нашем специализированном сайте Метеоцентр.Азия вы можете получить высокодетализированные автоматические прогнозы погоды по пунктам России, СНГ и мира в авиационном формате (включающие направление и скорость ветра, видимость, явления погоды, количество и форму облачности, нижнюю и верхнюю границу облачности).

Рекомендуем: Отрасли промышленности http://industry-portal24.ru

Погода в Воркуте - сегодня

Время (UTC), дата Ветер
(°,м/с) 
Видим.   Явления Облачность Т
(°С)
Тd
(°С)
f(%) Тe
(°С)
Pmin
(гПа)
dP
(гПа)
Po
(мм)
O2
(г/м3)
Тmin Tmax R s Состояние
почвы
18 15.10.17 040 (СВ) 10 км    ясно 
-9.4 -10.1 95 -11  1020.6  0.2  749  313           
21 15.10.17 тихо ()   10 км    ясно 
-11.2 -11.8 95 -11  1021  0.2  749  316           
00 16.10.17 040 (СВ) 10 км    ясно 
-12.6 -13.2 95 -15  1021.7  0.7  749  318           
03 16.10.17 030 (СВ) 1200 м  в посл. час туман  8/8 100 м 
[St]
-13.3 -13.9 95 -15  1021.9  0.1  749  319  -13.6      мокрый или
старый снег
10-40% 
06 16.10.17 тихо ()   10 км  {туман}  4/0 верхняя 
[Cs]
-10.6 -11.2 95 -11  1021.9  0.3  749  315           
09 16.10.17 тихо ()   10 км    6/0 верхняя 
[Ci fib]
-3.8 -6.7 80 -4  1021.2  -0.2  749  307           
12 16.10.17 110 (В) 10 км    8/0 средняя, верхняя 
[Ac trans|Ci fib]
-5 -8.2 78 -6  1020.7  -0.5  749  308           
15 16.10.17 090 (В) 10 км    10/0 средняя, верхняя 
[Ac trans|Ci fib]
-7 -9.5 82 -8  1020.1  -0.7  748  310    -3.5       
18 16.10.17 090 (В) 10 км    10/0 средняя 
[Ac und]
-6 -7.9 86 -9  1018  -2  747  309           
21 16.10.17 100 (В) 10 км    10/0 средняя 
[Ac und]
-4.1 -7.5 77 -5  1015.9  -2  745  306           
00 17.10.17 110 (В) 4600 м  слаб. снег  10/10 720 м 
[Sc]
-3.3 -5.7 83 -6  1013.2  -2.4  744  304           
03 17.10.17 100 (В) 10 км  {снег}  10/10 800 м 
[Sc]
-2.7 -3.7 93 -6  1010.9  -2.3  742  302  -7    0.4  равномерный
сухой снег
100% 
06 17.10.17 110 (В) 10 км  {снег}  10/8 1020 м средняя 
[Sc|Ac und]
-0.7 -3.5 81 -3  1008.5  -2.1  740  299           
09 17.10.17 140 (ЮВ) 10 км    10/6 1080 м средняя 
[Sc|Ac und]
+1.3 -3.2 72 -1  1006.5  -1.9  739  297           
12 17.10.17 110 (В) 6000 м    10/10 570 м 
[Sc]
+1.1 -1.5 83 -1  1004.4  -2.1  737  296           
15 17.10.17 130 (ЮВ) 8000 м  слаб. снег  10/10 800 м 
[Sc]
+0.8 -0.9 88 -1  1002.7  -1.6  736  296    +1.5  0.0     
18 17.10.17 140 (ЮВ) 10 км  {снег}  10/4 1000 м средняя 
[Sc|Ac und]
+1.7 -1.1 82 -1  1000.9  -1.8  735  294           
21 17.10.17 090 (В) 10 км    10/0 средняя 
[Ac und]
+0.1 -1.6 88 -1  999.7  -1.3  734  296           
00 18.10.17 090 (В) 10 км    10/3 1000 м средняя 
[Sc|Ac und]
-0.3 -1.5 92 -2  997.5  -2.1  732  295           
03 18.10.17 130 (ЮВ) 6{10}  10 км  слаб. дождь  10/8 1170 м средняя 
[Sc|As op]
+3.1 +0.7 84 994.7  -2.5  730  291  -0.8    0.0  равномерный
мокрый или
старый снег
100% 
06 18.10.17 140 (ЮВ) 6{10}  10 км  {дождь}  10/0 средняя 
[Ac As]
+3.3 +1 85 993.4  -1.3  729  290           
09 18.10.17 140 (ЮВ) 8-12{13}  10 км  слаб. ливневой дождь  10/10 900 м кучево-дожд. 
[Cb cap]
+1.7 -0.2 87 -2  992  -1.4  728  292           
12 18.10.17 150 (ЮВ) 7{13}  10 км  {ливн. осадки}  10/10 630 м кучево-дожд. 
[Cb cap]
+1.6 -1.2 82 -2  991  -1  728  292           
15 18.10.17 160 (Ю) 10 км  слаб. ливневой снег  10/10 660 м кучево-дожд. 
[Cb cap]
+0.7 -0.1 94 -3  990.2  -0.8  727  292    +3.4  0.6     
18 18.10.17 170 (Ю) 5000 м  слаб. ливневой снег  10/10 330 м кучево-дожд. 
[Cb cap]
+0.9 -0.5 90 -2  989.3  -0.9  726  292           
Время (UTC), дата Ветер
(°,м/с) 
Видим.   Явления Облачность Т
(°С)
Тd
(°С)
f(%) Тe
(°С)
Pmin
(гПа)
dP
(гПа)
Po
(мм)
O2
(г/м3)
Тmin Tmax R s Состояние
почвы

Для получения пояснительной информации подведите курсор к названию столбца.

ПОГОДА в Воркуте - архив

Всё, что Вы хотите узнать о погоде в Воркуте - удобно и подробно!

Выберите нужную дату (начиная с 1 января 2015* года) и нажмите кнопку "Найти".
Будут отображены архивные сводки погоды по пункту Воркута, начиная с указанной даты.


Отображать данные в формате CSV (для использования в таблицах Excel)


Внимание! Наш архив погоды предназначен исключительно для личного некоммерческого использования в познавательных целях. Если Вам необходимы официальные справки о состоянии погоды (для производственных, юридических, коммерческих и т.п. целей), обращайтесь в органы Росгидромета.

*Примечание: данная дата относится к архиву по метеостанциям СССР (Россия, СНГ, Балтия).
Архив по метеостанциям Зарубежной Европы и Азии (кроме Китая) хранится 10 дней, по другим регионам земного шара (Китай, Африка, Америка, Австралия, Океания) - 1 день.

Воркута - район местоположения метеостанции


Название, широта, долгота, высота метеостанции:
Воркута 67.5°ш. 64°д. 172 м над ур. моря [Российская Федерация]

Дополнительная информация

В oтличие oт бoльшинства пoгoдных сайтoв мы публикуем пoдрoбную метеoинфoрмацию в детальнoм прoфессиoнальнoм фoрмате.

Характеристики температуры и влажнoсти вoздуха измеряются на высoте 2 м в тени вдали oт зданий и деревьев.
Скoрoсть ветра измеряется на высoте 10 м (на урoвне рoста челoвека скoрoсть ветра ниже в 1.5-2 раза). Если метеoстанция нахoдится в гoрoде или в лесу, тo скoрoсть ветра занижена на 2-4 м/с пo сравнению с oткрытым местoм. Скoрoсть ветра над акватoриями крупных рек и oзёр, а также на вершинах хoлмoв на 2-5 м/с выше, чем в oбычных услoвиях.
Атмoсфернoе давление в разных тoчках местнoсти мoжет значительнo oтличаться oт давления на метеoстанции, в зависимoсти oт услoвий рельефа (при пoдъёме на 10 м давление пoнижается примернo на 1 мм рт.ст.).